Back to catalog

STARLINK-5021

AliveCommunicationsVLEO
NORAD 53902·PAYLOAD·🇺🇸 United States

Launched Sep 24, 2022 from Cape Canaveral Space Force Station

Loading…

Next Passes (next 24 hours)

TLE

FreshSource: CelesTrak SupGP

Epoch: Sep 14, 2026, 21:22 UTC

1 53902C 22119S   26257.89076389 -.00026221  00000+0 -84330-3 0  2578
2 53902  53.1576 134.6013 0001278  91.0411 325.9507 15.31711546    16

Track STARLINK-5021 in real time with AllMySat

Download on the App Store